TimeMST,TemperatureF,Dew PointF,Humidity,Sea Level PressureIn,VisibilityMPH,Wind Direction,Wind SpeedMPH,Gust SpeedMPH,PrecipitationIn,Events,Conditions,WindDirDegrees,DateUTC
12:55 AM,17.1,12.0,81,30.40,10.0,NNE,6.9,-,N/A,,Clear,30,2013-11-07 07:55:00
1:55 AM,15.1,10.9,84,30.43,10.0,NNW,3.5,-,N/A,,Clear,330,2013-11-07 08:55:00
2:55 AM,14.0,10.9,88,30.45,10.0,NNW,3.5,-,N/A,,Clear,340,2013-11-07 09:55:00
3:55 AM,15.1,10.9,84,30.46,10.0,Calm,Calm,-,N/A,,Clear,0,2013-11-07 10:55:00
4:55 AM,16.0,12.0,84,30.50,10.0,Calm,Calm,-,N/A,,Clear,0,2013-11-07 11:55:00
5:55 AM,15.1,12.0,88,30.54,10.0,Calm,Calm,-,N/A,,Clear,0,2013-11-07 12:55:00
6:55 AM,17.1,12.0,81,30.56,10.0,NNW,4.6,-,N/A,,Clear,340,2013-11-07 13:55:00
7:55 AM,32.0,19.9,61,30.50,10.0,Calm,Calm,-,N/A,,Clear,0,2013-11-07 14:55:00
8:55 AM,45.0,16.0,31,30.45,10.0,South,10.4,-,N/A,,Clear,170,2013-11-07 15:55:00
9:55 AM,48.9,12.9,24,30.43,10.0,South,19.6,33.4,N/A,,Clear,170,2013-11-07 16:55:00
10:55 AM,51.1,14.0,23,30.42,10.0,South,21.9,29.9,N/A,,Clear,170,2013-11-07 17:55:00
11:55 AM,51.1,14.0,23,30.38,10.0,SSE,18.4,34.5,N/A,,Clear,160,2013-11-07 18:55:00
12:55 PM,53.1,15.1,22,30.33,10.0,South,19.6,32.2,N/A,,Clear,180,2013-11-07 19:55:00
1:55 PM,54.0,16.0,22,30.30,10.0,SSE,18.4,31.1,N/A,,Clear,160,2013-11-07 20:55:00
2:55 PM,54.0,16.0,22,30.29,10.0,SSE,15.0,29.9,N/A,,Clear,160,2013-11-07 21:55:00
3:55 PM,51.1,16.0,25,30.28,10.0,SSE,16.1,29.9,N/A,,Clear,160,2013-11-07 22:55:00
4:55 PM,42.1,17.1,37,30.29,10.0,SSE,15.0,-,N/A,,Clear,150,2013-11-07 23:55:00
5:55 PM,37.9,17.1,43,30.30,10.0,SSE,6.9,-,N/A,,Clear,160,2013-11-08 00:55:00
6:55 PM,34.0,18.0,52,30.30,10.0,SSE,12.7,-,N/A,,Clear,150,2013-11-08 01:55:00
7:14 PM,34.0,19.0,54,30.20,10.0,SSE,11.5,-,N/A,,Clear,150,2013-11-08 02:14:00
7:55 PM,30.9,19.0,61,30.23,10.0,SSE,13.8,-,N/A,,Clear,160,2013-11-08 02:55:00
8:55 PM,28.0,19.0,69,30.16,10.0,SSE,8.1,-,N/A,,Clear,150,2013-11-08 03:55:00
9:55 PM,28.9,19.0,67,30.11,10.0,NW,11.5,-,N/A,,Clear,320,2013-11-08 04:55:00
10:55 PM,21.9,16.0,78,30.09,10.0,Variable,5.8,-,N/A,,Clear,0,2013-11-08 05:55:00
11:55 PM,21.9,17.1,82,30.06,10.0,North,5.8,-,N/A,,Clear,360,2013-11-08 06:55:00